Weather History for KSLN - February, 2012

Change the Weather History Date:

Friday, February 3, 2012

  Actual Average Record
Temperature  
Mean Temperature 43 °F 32 °F  
Max Temperature 44 °F 43 °F 74 °F (1962)
Min Temperature 41 °F 22 °F -11 °F (1905)
Degree Days  
Heating Degree Days 22 32  
Month to date heating degree days 63 98  
Since 1 July heating degree days 2857 3114  
Cooling Degree Days 0 0  
Month to date cooling degree days 0 0  
Year to date cooling degree days 0 0  
Moisture  
Dew Point 41 °F    
Average Humidity 95    
Maximum Humidity 100    
Minimum Humidity 89    
Precipitation  
Precipitation 1.51 in 0.04 in 1.51 in (2012)
Month to date precipitation 1.78 0.11  
Year to date precipitation 1.93 0.74  
Sea Level Pressure  
Sea Level Pressure 30.01 in    
Wind  
Wind Speed 12 mph (NE)    
Max Wind Speed 22 mph    
Max Gust Speed 35 mph    
Visibility 5 miles    
Events Rain , Thunderstorm    
T = Trace of Precipitation, MM = Missing Value Source: NWS Daily Summary

Daily Weather History Graph

Daily Weather History Graph

Search for Another Location

Airport or City:

Trip Planner

Search our weather history database for the weather conditions in past years. The results will help you decide how hot, cold, wet, or windy it might be!

Date:

Astronomy

Feb. 03, 2012 Rise Set
Actual Time 7:35 AM CST 5:54 PM CST
Civil Twilight 7:07 AM CST 6:22 PM CST
Nautical Twilight 6:35 AM CST 6:53 PM CST
Astronomical Twilight 6:04 AM CST 7:25 PM CST
Moon 1:57 PM CST (2/3) 4:10 AM CST (2/3)
Length of Visible Light 11h 14m
Length of Day
10h 18m
Waxing Gibbous, 82% of the Moon is Illuminated
Feb 3
Waxing Gibbous
Feb 7
Full
Feb 14
Last Quarter
Feb 21
New
Feb 29
First Quarter

Hourly Weather History & Observations

Time (CST) Temp. Windchill Dew Point Humidity Pressure Visibility Wind Dir Wind Speed Gust Speed Precip Events Conditions
12:51 AM 42.8 °F 34.8 °F 39.2 °F 87% 30.05 in 4.0 mi NW 17.3 mph - 0.19 in Rain , Thunderstorm Heavy Thunderstorms and Rain
12:53 AM 42.1 °F 34.2 °F 39.9 °F 92% 30.04 in 4.0 mi NNW 16.1 mph - 0.20 in Rain , Thunderstorm Heavy Thunderstorms and Rain
1:27 AM 41.0 °F 33.5 °F 39.2 °F 93% 30.02 in 2.5 mi NE 13.8 mph - 0.17 in Rain Heavy Rain
1:31 AM 42.8 °F 35.8 °F 39.2 °F 87% 30.02 in 3.0 mi NE 13.8 mph - 0.19 in Rain Heavy Rain
1:53 AM 42.1 °F 34.2 °F 39.9 °F 92% 30.01 in 3.0 mi ENE 16.1 mph 23.0 mph 0.32 in Rain Heavy Rain
2:37 AM 42.8 °F 36.6 °F 41.0 °F 93% 30.00 in 4.0 mi East 11.5 mph 20.7 mph 0.25 in Rain , Thunderstorm Heavy Rain
2:53 AM 43.0 °F 35.4 °F 41.0 °F 93% 29.99 in 2.5 mi East 16.1 mph 23.0 mph 0.32 in Rain , Thunderstorm Thunderstorms and Rain
3:02 AM 42.8 °F 35.4 °F 41.0 °F 93% 29.99 in 5.0 mi East 15.0 mph - 0.04 in Rain , Thunderstorm Heavy Thunderstorms and Rain
3:20 AM 42.8 °F 35.4 °F 42.8 °F 100% 29.98 in 4.0 mi East 15.0 mph - 0.17 in Rain Heavy Rain
3:53 AM 43.0 °F 36.0 °F 41.0 °F 93% 29.99 in 10.0 mi East 13.8 mph - 0.27 in Rain Light Rain
4:53 AM 42.1 °F 33.6 °F 39.9 °F 92% 29.98 in 5.0 mi East 18.4 mph 24.2 mph 0.09 in Rain Rain
5:20 AM 42.8 °F 35.4 °F 41.0 °F 93% 29.95 in 10.0 mi East 15.0 mph 25.3 mph 0.01 in   Overcast
5:53 AM 43.0 °F 38.2 °F 41.0 °F 93% 30.01 in 10.0 mi ESE 8.1 mph 18.4 mph 0.01 in   Overcast
6:53 AM 43.0 °F 35.4 °F 41.0 °F 93% 29.93 in 10.0 mi East 16.1 mph 21.9 mph 0.00 in   Mostly Cloudy
7:53 AM 43.0 °F 37.7 °F 42.1 °F 97% 30.02 in 10.0 mi North 9.2 mph - N/A   Overcast
8:53 AM 43.0 °F 38.8 °F 41.0 °F 93% 30.04 in 10.0 mi North 6.9 mph - N/A   Overcast
9:53 AM 43.0 °F 36.4 °F 41.0 °F 93% 30.01 in 9.0 mi NE 12.7 mph 21.9 mph N/A   Overcast
10:53 AM 43.0 °F 38.8 °F 42.1 °F 97% 30.06 in 8.0 mi North 6.9 mph - N/A   Overcast
11:53 AM 43.0 °F 37.2 °F 41.0 °F 93% 30.04 in 6.0 mi NNE 10.4 mph - N/A   Overcast
12:33 PM 42.8 °F 36.6 °F 41.0 °F 93% 30.02 in 2.5 mi NE 11.5 mph - N/A   Overcast
12:46 PM 42.8 °F 36.6 °F 42.8 °F 100% 30.02 in 1.5 mi NE 11.5 mph - N/A   Overcast
12:53 PM 43.0 °F 36.8 °F 42.1 °F 97% 30.03 in 1.5 mi NE 11.5 mph - N/A   Overcast
1:30 PM 42.8 °F 35.8 °F 42.8 °F 100% 29.98 in 0.8 mi NE 13.8 mph 21.9 mph N/A   Overcast
1:53 PM 43.0 °F 36.4 °F 42.1 °F 97% 29.99 in 0.8 mi NE 12.7 mph - N/A   Overcast
2:00 PM 44.6 °F 39.2 °F 42.8 °F 93% 29.97 in 6.0 mi NE 10.4 mph - N/A   Overcast
2:26 PM 44.6 °F 38.4 °F 42.8 °F 93% 29.97 in 7.0 mi NE 12.7 mph - N/A   Overcast
2:53 PM 44.1 °F 37.1 °F 42.1 °F 93% 29.98 in 6.0 mi NE 15.0 mph - N/A   Overcast
3:53 PM 44.1 °F 38.6 °F 42.1 °F 93% 30.00 in 7.0 mi NE 10.4 mph - N/A   Overcast
4:53 PM 43.0 °F 36.0 °F 42.1 °F 97% 29.99 in 4.0 mi NE 13.8 mph - N/A   Overcast
5:20 PM 42.8 °F 35.8 °F 42.8 °F 100% 29.98 in 2.5 mi NE 13.8 mph - N/A   Overcast
5:53 PM 43.0 °F 36.0 °F 42.1 °F 97% 30.01 in 3.0 mi NE 13.8 mph - 0.00 in Rain Light Rain
6:53 PM 42.1 °F 34.9 °F 41.0 °F 96% 30.03 in 3.0 mi NE 13.8 mph - 0.07 in Rain Light Rain
7:53 PM 41.0 °F 34.7 °F 41.0 °F 100% 30.04 in 5.0 mi NE 10.4 mph - 0.00 in Rain Light Rain
8:53 PM 42.1 °F 36.1 °F 39.9 °F 92% 30.04 in 4.0 mi ENE 10.4 mph - 0.10 in Rain Rain
9:53 PM 41.0 °F 35.2 °F 39.9 °F 96% 30.04 in 8.0 mi ENE 9.2 mph - 0.09 in Rain Light Rain
10:53 PM 41.0 °F 36.4 °F 39.0 °F 93% 30.04 in 5.0 mi NE 6.9 mph - 0.02 in Rain Rain
11:53 PM 41.0 °F 37.1 °F 39.0 °F 93% 30.05 in 8.0 mi NNE 5.8 mph - 0.03 in Rain Light Rain